Location: Alto Pass Reservoir
(37.5801°N, 89.3084°W)
Time: 15:08:52
(UTC+00:00)

Daily predictions for brighter satellites

Satellite Brightness Start Highest point End
(mag) Time Altitude Azimuth Time Altitude Azimuth Time Altitude Azimuth
USA 215 3.8 12:00:51 10° ESE 12:07:10 55° NE 12:13:30 10° NW
SJ 16-02 2.4 12:03:56 10° WSW 12:07:26 23° WNW 12:10:57 10° NNW
CZ-4B R/B 2.6 12:05:30 10° N 12:09:02 61° WNW 12:12:38 10° SSW
OAO 2 Rocket 4.0 12:06:02 10° WSW 12:11:07 55° SSE 12:16:06 10° E
Cosmos 1607 4.3 12:06:48 10° NNW 12:13:00 67° ENE 12:19:05 10° SE
Cosmos 1666 Rocket 4.4 12:09:54 10° S 12:14:16 57° E 12:18:40 10° NNE
DELTA 2 R/B (1) 3.6 12:12:08 11° WNW 12:17:26 86° NNE 12:22:59 10° ESE
Cosmos 2228 Rocket 3.2 12:16:42 10° NNW 12:21:11 64° W 12:25:40 10° S
Meteor 1-27 Rocket 4.3 12:16:14 10° NNW 12:21:25 37° W 12:26:41 10° SSW
Lacrosse 4 Rocket 4.0 12:24:29 10° N 12:27:32 18° NE 12:30:35 10° E
Sich 1 3.3 12:26:22 10° SSW 12:30:27 45° W 12:34:35 10° N
SL-4 R/B 2.7 12:29:32 10° W 12:32:38 28° NNW 12:35:54 10° NNE
BREEZE M DEB (TANK) 4.2 12:31:55 10° NNW 12:33:09 13° NNE 12:34:14 10° NE
CZ-4B R/B 1.9 12:30:08 10° SSE 12:33:24 61° ENE 12:36:37 10° N
NOAA 12 4.3 12:29:15 10° N 12:34:16 47° WNW 12:39:15 10° SW
CZ-2D R/B 3.4 12:30:54 10° NNE 12:34:41 78° ESE 12:38:28 10° S
Cosmos 2297 Rocket 2.7 12:29:14 10° NNW 12:34:51 63° ENE 12:40:27 10° SSE
Cosmos 1939 Rocket 3.2 12:32:01 10° N 12:35:41 41° WNW 12:39:18 10° SW
Cosmos 44 3.7 12:30:23 10° SSW 12:35:46 80° ESE 12:41:03 10° NNE
COSMOS 2455 3.7 22:59:28 10° SW 23:05:18 51° WNW 23:11:10 10° NNE
Cosmos 1833 Rocket 4.4 23:01:18 10° WSW 23:06:09 30° WNW 23:11:05 10° N
Cosmos 921 Rocket 3.7 23:04:03 10° SSE 23:07:46 32° E 23:11:32 10° NE
Cosmos 2278 3.9 23:07:17 10° NNW 23:12:49 49° ENE 23:18:18 10° SE
Cosmos 44 Rocket 4.1 23:09:16 10° N 23:13:28 28° NE 23:17:33 10° ESE
CZ-2D R/B 4.2 23:11:11 10° SE 23:14:25 27° ENE 23:17:40 10° NNE
SL-24 R/B - RUBIN 2 3.5 23:13:14 10° NNW 23:17:40 86° ENE 23:21:58 10° SSE
CZ-2C R/B 3.4 23:14:42 10° NE 23:19:11 30° E 23:23:41 10° SSE
Cosmos 1939 Rocket 2.8 23:15:17 10° SSE 23:19:22 78° ENE 23:23:27 10° N
ISS -3.8 23:16:15 10° NW 23:19:39 70° NE 23:23:00 10° ESE
Cosmos 1814 Rocket 4.2 23:15:09 10° SSW 23:20:22 74° WNW 23:25:34 10° NNE
Cosmos 1782 3.9 23:19:15 10° SSW 23:23:06 48° W 23:26:58 10° N
Cosmos 1666 2.8 23:21:43 10° N 23:25:20 49° E 23:28:56 10° SSE
Cosmos 1151 Rocket 3.0 23:21:42 10° S 23:26:01 83° E 23:30:23 10° N
Cosmos 1570 Rocket 4.3 23:22:50 10° SSW 23:28:03 73° WNW 23:33:17 10° NNE
Meteor 1-14 Rocket 4.3 23:22:32 10° N 23:28:25 66° E 23:34:19 10° SSE
CZ-2C R/B 1.8 23:27:57 10° WSW 23:32:13 57° S 23:35:52 13° E
Cosmos 1633 Rocket 3.1 23:28:27 10° N 23:32:47 57° E 23:37:06 10° SSE
COSMO-SKYMED 1 3.2 23:29:20 10° NNE 23:33:20 35° E 23:37:18 10° SSE
Aureole 3 Rocket 4.5 23:31:39 10° SE 23:35:09 24° E 23:39:35 10° NNE
APEX 3.0 23:31:56 10° SSW 23:35:58 70° ESE 23:38:59 12° NNE
Tiangong 2.1 23:34:03 10° SW 23:36:57 34° SSE 23:38:49 18° E
CZ-4B R/B 3.6 23:33:14 10° SE 23:38:11 38° ENE 23:43:05 10° N
Meteor 2-16 Rocket 4.4 23:32:44 10° N 23:38:52 74° E 23:45:00 10° SSE
Cosmos 2298 Rocket 4.5 23:35:01 10° N 23:40:00 38° ENE 23:44:57 10° SE
X-37B 0.9 23:38:18 10° W 23:41:06 47° NNW 23:42:42 21° NE
MOS 1-B 4.3 23:42:34 10° SSE 23:48:16 66° ENE 23:54:01 10° N
Meteor 1-27 Rocket 4.1 23:43:29 10° SSE 23:48:30 37° E 23:53:33 10° NNE
Lacrosse 5 rocket 1.7 23:45:20 10° NNW 23:49:06 39° NE 23:51:43 19° ESE
Meteor 2-6 Rocket 4.3 23:44:48 10° S 23:50:33 85° W 23:56:11 10° N
PAYLOAD B 4.2 23:48:40 10° SSE 23:54:15 81° ENE 23:59:52 10° NNW
Cosmos 1544 3.4 23:51:00 10° N 23:54:25 39° E 23:57:50 10° SSE
Cosmos 1812 4.5 23:51:17 10° SW 23:54:46 33° WNW 23:58:18 10° NNW
Cosmos 2360 Rocket 3.4 23:51:53 10° N 23:55:40 20° NE 23:55:40 20° NE
